{"data":{"norad_id":69987,"intl_designator":"2026-159N","name":"STARLINK-38099","alt_names":[],"object_type":"PAYLOAD","status":"ACTIVE","operator":null,"country":"US","launch_date":"2026-07-11","launch_site_code":"AFWTR","launch_vehicle":null,"mission":null,"orbit_class":"UNKNOWN","rcs_meters":null,"size_class":null,"mass_kg":null,"dimensions":null,"purposes":["comms"],"wikipedia_slug":null,"has_3d_model":false,"image_url":null,"decayed_at":null,"tle_current":{"epoch":"2026-09-19T17:15:44.510688Z","epoch_age_seconds":85244,"freshness":"FRESH","line1":"1 69987U 26159N   26262.71926517  .00047544  00000+0  86966-3 0  9999","line2":"2 69987  97.2857 104.4886 0001487 106.2824 253.8591 15.49218557 12321","mean_motion":15.49218557,"eccentricity":0.0001487,"inclination_deg":97.2857,"raan_deg":104.4886,"arg_perigee_deg":106.2824,"mean_anomaly_deg":253.8591,"bstar":0.00086966,"rev_number":1232,"period_min":92.950087222587,"perigee_km":418.00007741908,"apogee_km":420.02154917875,"semimajor_km":6797.1478132989,"source":"CELESTRAK","updated_at":"2026-09-20T09:00:44.330140Z"}}}